Regional Weather Roundup
Issued by NWS

Home | Current Version | Previous Version | Graphics & Text | Print | Product List | Glossary On
Versions: 1 2 3 4 5 6 7 8 9 10 11 12 13 14 15 16 17 18 19 20 21 22 23 24 25 26 27 28 29 30 31 32 33 34 35 36 37 38 39 40 41 42 43 44 45 46 47 48 49 50
000
ASUS43 KLOT 230906
RWRIL

ILLINOIS REGIONAL WEATHER ROUNDUP
NATIONAL WEATHER SERVICE CHICAGO/ROMEOVILLE IL
400 AM CDT WED APR 23 2014

NOTE: "FAIR" INDICATES FEW OR NO CLOUDS BELOW 12,000 FEET WITH NO
SIGNIFICANT WEATHER AND/OR OBSTRUCTIONS TO VISIBILITY.

* THESE STATIONS ARE NOT UNDER NWS QUALITY CONTROL. THEY ALSO MAY NOT
  REPORT WEATHER SUCH AS PRECIPITATION OR FOG.

ILZ001-002-007-009-015-016-024-231000-
NORTHWEST ILLINOIS

CITY           SKY/WX    TMP DP  RH WIND       PRES   REMARKS
MOLINE         PTCLDY    35  30  82 E5        30.11R WCI  31
STERLING*      CLEAR     32  28  86 E3        30.12R
SAVANNA*       CLEAR     35  31  87 NE6       30.13R WCI  30
$$

ILZ003-004-008-010-011-017-018-231000-
NORTH CENTRAL ILLINOIS

CITY           SKY/WX    TMP DP  RH WIND       PRES   REMARKS
ROCKFORD       CLEAR     36  27  69 E6        30.15R WCI  31
FREEPORT*      CLEAR     28  25  88 CALM      30.15R
ROCHELLE*      CLEAR     32  28  85 CALM      30.14R
DE KALB*       CLEAR     32  27  83 NE9       30.13R WCI  24
PERU*          CLEAR     35  30  81 CALM      30.13R
$$

ILZ005-006-012>014-019>023-231000-
NORTHEAST ILLINOIS

CITY           SKY/WX    TMP DP  RH WIND       PRES   REMARKS
CHICAGO-OHARE  CLEAR     36  26  67 N6        30.13R WCI  31
CHICAGO-MIDWAY CLEAR     37  29  72 N10       30.12R WCI  30
AURORA         CLEAR     30  25  81 NE7       30.12R WCI  23
LANSING*       CLEAR     36  28  73 N6        30.12R WCI  31
JOLIET*        CLEAR     36  29  76 NE7       30.13R WCI  30
WAUKEGAN       CLEAR     32  27  81 CALM      30.13R
DUPAGE AIRPORT CLEAR     32  27  81 N5        30.12R WCI  27
KANKAKEE*      CLEAR     35  30  82 N5        30.12R WCI  31
WHEELING       CLEAR     35  28  75 N5        30.14R WCI  31
MORRIS*        CLEAR     35  27  73 CALM      30.12R
NORTHERLY ISL    N/A     37  30  76 MISG        N/A
$$

LMZ740>746-231000-
SOUTHERN LAKE MICHIGAN

STATION/POSITION SKY/WX   TEMP    WIND        PRES    VSBY  WAVE
                          AIR SEA DIR/SP/G                  HT/PER
                          (F)     (DEG/KT/KT) (MB)    (MI)  (FT/S)
WAUKEGAN HARBOR            37      10/ 16/ 20 1021.3S
HARRISON CRIB              36     360/ 17/ 19   N/A
BURNHAM HARBOR             37     350/ 13/ 16   N/A
CALUMET HARBOR             37     350/ 12/ 20 1020.8R
MICHIGAN CITY              36     350/ 16/ 20   N/A
$$

ILZ025>027-034>036-040-047-049-050-058-095>099-231000-
WEST-CENTRAL ILLINOIS

CITY           SKY/WX    TMP DP  RH WIND       PRES   REMARKS
QUINCY         PTCLDY    47  31  53 E10       30.06R
GALESBURG*     CLEAR     37  32  81 E6        30.10R WCI  33
MACOMB*        CLEAR     40  32  75 E10       30.11S
JACKSONVILLE*  CLEAR     41  33  73 NE12      30.10R
PITTSFIELD*    PTCLDY    47  33  58 NE9       30.08R
$$

ILZ028>032-037-038-041>044-048-051>054-059>061-231000-
CENTRAL ILLINOIS

CITY           SKY/WX    TMP DP  RH WIND       PRES   REMARKS
PONTIAC        CLEAR     36  30  80 CALM      30.12R
BLOOMINGTON    PTCLDY    33  27  79 NE6       30.12R WCI  27
DECATUR        PTCLDY    34  28  79 NE7       30.10R WCI  28
PEORIA         PTCLDY    41  27  57 E10       30.11R
LACON*         PTCLDY    30  28  92 CALM      30.12R
LINCOLN*       CLEAR     38  31  76 CALM      30.12R
SPRINGFIELD    CLEAR     41  31  67 E10       30.11R
TAYLORVILLE    CLEAR     41  30  65 E10       30.09R
$$

ILZ033-039-045-046-055>057-062-063-231000-
EAST-CENTRAL ILLINOIS

CITY           SKY/WX    TMP DP  RH WIND       PRES   REMARKS
CHAMPAIGN      CLEAR     37  28  70 NE8       30.09R WCI  31
RANTOUL*       CLEAR     38  29  69 CALM      30.11R
MATTOON        PTCLDY    40  29  64 NE5       30.08R
PARIS*         PTCLDY    39  30  70 CALM      30.10R
$$

ILZ079-100>102-231000-
SOUTHWEST ILLINOIS

CITY           SKY/WX    TMP DP  RH WIND       PRES   REMARKS
ALTON          CLEAR     46  34  62 NE3       30.06R
BELLEVILLE     PTCLDY    47  35  61 NE7       30.04R
CAHOKIA*       CLEAR     44  41  89 CALM      30.04R
SPARTA*        PTCLDY    45  36  70 NE5       30.04R
$$

ILZ064>066-069>071-074>076-080>082-084>086-088>090-092>094-231000-
SOUTH-CENTRAL ILLINOIS

CITY           SKY/WX    TMP DP  RH WIND       PRES   REMARKS
CARBONDALE     CLEAR     45  37  73 NE3       30.03R
CAIRO*         CLEAR     48  41  77 CALM      30.02R
MARION         CLEAR     45  39  81 N3        30.03R
MT. VERNON     CLEAR     48  30  49 N8        30.05R
CENTRALIA*       N/A     47  33  57 CALM      30.05R
SALEM*         CLEAR     48  38  69 NE6       30.05R
METROPOLIS*    CLEAR     49  36  61 CALM      30.01R
$$

ILZ067-068-072-073-078-083-087-091-231000-
SOUTHEAST ILLINOIS

CITY           SKY/WX    TMP DP  RH WIND       PRES   REMARKS
FAIRFIELD*     CLEAR     46  39  76 N7        30.05R
ROBINSON*      CLEAR     44  36  72 NE8       30.09R
CARMI*         CLEAR     49  40  70 N8        30.03R
$$

ABBREVIATIONS USED IN REMARKS
   TC - TEMPERATURE IN CELSIUS
  WCI - WIND CHILL INDEX
   HX - HEAT INDEX
  VSB - VISIBILITY
$$




USA.gov is the U.S. government's official web portal to all federal, state and local government web resources and services.